一网星座-0663星 (ONEWEB-0663)

导读 | 星芒AI

ONEWEB-0663 是 OneWeb 卫星星座计划中的一颗低轨通信卫星,旨在为全球提供高速互联网服务。该卫星采用标准化设计,由阿丽亚娜集团制造,搭载星间激光通信系统,以提升数据传输效率。它于2023年发射,运行在约1200公里高度的近极地轨道,与其他 OneWeb 卫星共同构建覆盖全球的宽带网络,重点服务于偏远和网络基础设施薄弱的地区。

基本信息
目录编号:
55823
目录名称:
ONEWEB-0663
国际标识:
2023-029AD
轨道中心:
EARTH
卫星名称:
一网星座-0663星
卫星全名:
一网星座-0663星 (ONEWEB-0663)
卫星状态:
在轨 (已飞行966 天)
发射日期:
2023-03-09 UTC
国别 :
英国 (GB)
星等 :
--
轨道信息
数据来源 国际轨道数据
星历时间: 2025-10-30T06:52:09+0800
9小时前
查看轨道信息
半长轴: 7559.614km
偏心率: 0.0002069
轨道倾角: 87.921°
近地点辐角 105.575°
升交点赤经 320.406°
平近点角 254.561°
近地点: 1179.914km
远地点: 1183.044km
周期: 109.021分钟
每日圈数: 13.208495
详细信息
平衡模式:
三轴稳定
覆盖范围:
全球
运营商:
一网卫星公司
运营商所在国:
英国
制造商(研发单位):
一网卫星公司
制造商所在国:
英国
使用方式:
暂无
卫星简介
OneWeb卫星网络由648颗重约125公斤的微型卫星组成,运行在1200公里的轨道上。 每颗卫星都能够提供至少每秒8千兆位的吞吐量,以使用其高吞吐量的Ku频段有效载荷为家庭和移动平台提供互联网接入。该卫星仍在工作。
2D轨道图
3D轨道图
轨道高度分析图
轨道倾角分析图
轨道综合分析图
查看轨道综合分析图